{"data":{"norad_id":68315,"epoch":"2026-05-24T22:02:43.543392Z","epoch_age_seconds":75344,"freshness":"FRESH","line1":"1 68315U 26057X   26144.91855953  .00196613  00000+0  12892-2 0  9994","line2":"2 68315  97.2839 271.1292 0001647  66.4295 293.7143 15.75184246 10280","mean_motion":15.75184246,"eccentricity":0.0001647,"inclination_deg":97.2839,"raan_deg":271.1292,"arg_perigee_deg":66.4295,"mean_anomaly_deg":293.7143,"bstar":0.0012892,"rev_number":1028,"period_min":91.417877220186,"perigee_km":342.9997855426,"apogee_km":345.21409269615,"semimajor_km":6722.2439391194,"source":"CELESTRAK","updated_at":"2026-05-25T13:38:21.920207Z"}}